Location: Chacón
(10.5789°N, 66.9317°W)
Time: 20:31:01
(UTC+00:00)

Sakura Rocket - Pass Details

Date: 13 August 2024
Orbit: 475 x 1710 km, 28.7° (Epoch: 09 September)

Event Time Altitude Azimuth Distance (km) Brightness Sun altitude
Exits shadow 07:34:40 27° 5° (N) 1,869 5.6 -38.4°
Maximum altitude 07:36:00 28° 24° (NNE) 1,876 5.8 -38.1°
Drops below altitude 10° 07:42:49 10° 80° (E) 3,328 7.5 -36.6°
Sets 07:46:44 0° 91° (E) 4,512 8.3 -35.8°
